Presure
360 353 353 349 358 360 362 390 382 434 256 177 513 322 355 356 304 139 302 280 270 156 175 247 237 239 245 251 231 229 231 207 253 248 190 236 231 213 203 211 201 200 196 202 194 202 201 191 194 196 198 198 196 195
355 354 353 369 362 382 399 372 379 176 189 498 172 374 188 353 238 167 292 278 242 274 236 261 265 261 266 261 246 252 248 249 243 243 185 234 232 208 202 210 207 198 198 186 188 161 191 192 197 196 197 197 199 199
381 377 374 380 260 395 190 150 380 416 416 201 310 172 349 347 160 171 170 279 282 284 250 271 281 248 267 262 249 187 247 252 244 249 240 226 228 213 200 213 200 205 202 179 200 197 193 190 190 191 191 195 198 200
437 252 419 407 339 139 383 151 341 149 343 476 240 347 353 292 273 256 287 247 222 233 182 190 246 264 176 233 234 248 243 228 197 222 237 221 225 216 199 209 208 195 202 204 151 178 197 195 197 197 159 196 195 195
512 504 435 417 231 158 333 164 500 514 163 382 355 325 300 272 236 242 239 163 220 225 178 220 218 226 245 203 225 241 236 192 195 199 221 224 229 216 207 153 209 210 197 201 202 201 199 197 196 196 193 191 184 192
415 466 524 487 487 498 500 500 137 529 154 348 308 282 279 247 247 235 165 214 225 160 158 206 173 175 238 228 232 231 229 231 252 234 229 220 215 228 212 207 191 196 207 199 195 198 203 199 196 193 191 194 198 199
309 356 356 441 454 507 546 517 377 353 308 295 289 274 270 274 261 252 187 231 163 240 208 188 240 236 226 229 173 213 221 193 237 205 228 219 216 221 217 208 203 206 199 204 203 198 194 192 191 192 192 192 193 198
245 297 305 334 337 309 321 306 305 294 280 255 250 228 218 254 231 231 226 216 232 243 193 191 203 209 230 199 227 216 189 231 238 236 233 183 222 223 218 207 206 204 202 202 203 203 201 200 199 199 202 204 207 207
280 274 273 281 284 281 280 274 279 250 242 257 255 220 218 225 215 230 226 220 215 178 190 193 194 233 234 234 230 222 189 187 224 233 238 231 226 222 217 212 212 213 207 201 202 203 204 208 207 207 197 191 203 201
258 267 274 259 271 282 279 253 279 281 264 273 255 237 212 266 270 211 239 239 252 245 178 171 175 225 222 207 212 187 201 197 215 237 237 230 225 219 220 219 213 212 210 205 206 205 209 214 217 215 197 200 203 204
255 272 257 264 254 257 274 248 243 263 277 269 258 280 251 258 250 268 238 252 235 232 245 242 234 219 205 218 237 214 204 205 215 236 231 232 225 219 220 218 214 213 213 210 202 201 193 193 210 208 205 204 212 214
269 277 265 272 261 266 245 236 244 252 229 234 265 263 254 242 244 230 242 258 217 224 225 234 237 210 228 224 220 228 235 235 209 236 230 223 219 220 221 219 217 218 217 215 215 211 204 204 206 210 213 214 211 200
257 262 263 253 257 260 257 260 278 270 245 260 250 249 250 226 236 230 233 233 244 248 224 241 224 224 239 235 226 230 231 236 211 223 231 223 217 218 223 225 225 222 219 218 218 221 222 221 219 214 204 219 227 231
247 252 263 261 253 251 261 261 260 253 250 254 246 268 248 238 269 235 231 229 229 241 232 231 234 234 227 226 219 230 240 235 220 225 229 224 222 221 222 222 225 223 218 215 218 221 222 223 224 225 227 238 244 222
244 241 241 243 256 258 253 247 248 237 228 236 240 239 248 235 239 246 243 229 222 226 224 211 227 227 222 223 218 221 231 238 234 220 226 229 225 223 224 225 223 221 219 219 220 221 224 234 243 241 226 218 225 220
231 231 237 239 238 243 239 245 257 251 247 253 246 243 246 230 235 227 232 236 235 224 228 225 219 219 229 240 229 223 226 247 239 233 231 229 228 228 225 221 213 217 229 235 235 232 227 220 219 225 228 203 221 229
232 229 228 229 226 222 234 235 238 230 227 234 238 233 232 230 231 231 231 234 232 225 226 233 234 228 231 236 228 230 240 251 240 233 227 225 224 224 224 223 220 216 220 220 219 217 226 227 200 224 231 228 217 235
234 236 235 234 236 233 232 237 241 234 234 234 235 238 237 238 238 238 236 238 225 224 242 239 237 236 236 236 254 251 245 235 236 241 236 232 228 225 225 225 228 231 235 233 232 232 232 231 232 235 234 240 234 249
235 242 239 240 238 236 235 234 228 226 230 231 232 230 232 235 238 240 242 246 242 236 233 232 231 243 249 250 251 244 239 242 240 238 236 233 231 234 234 232 233 235 237 237 236 237 241 243 244 245 249 258 257 257
234 229 224 226 228 235 226 234 242 243 240 236 237 236 234 237 237 243 255 276 270 257 248 252 250 243 242 244 246 247 253 254 249 248 246 246 246 244 242 239 238 242 243 245 245 244 251 251 257 257 253 254 260 260
228 231 230 235 235 252 263 242 240 240 254 246 249 263 261 241 237 236 242 238 238 267 272 270 263 254 245 243 247 250 258 259 258 258 255 254 254 253 251 252 252 248 249 256 254 251 260 256 253 260 261 260 263 265
255 256 244 253 237 236 243 238 249 250 253 245 225 221 228 251 247 246 248 269 272 264 262 263 264 262 262 262 264 265 263 259 259 258 259 258 256 255 255 256 254 254 255 260 258 258 259 260 259 262 264 268 274 282
247 253 251 249 243 237 237 235 236 240 244 254 254 245 233 236 242 240 240 248 254 260 260 260 261 260 258 252 260 262 261 261 260 261 261 261 262 261 262 262 260 259 260 261 263 264 265 267 274 277 280 282 281 291
250 244 245 260 252 239 243 244 249 254 258 240 250 257 262 255 253 245 246 242 245 248 248 255 263 265 263 262 261 259 260 260 260 261 263 264 263 263 263 263 265 267 268 272 276 279 280 286 280 284 292 300 307 383
256 243 292 299 257 246 269 238 242 254 242 242 253 270 256 250 257 264 262 263 262 259 252 257 261 262 270 269 229 269 240 240 242 243 258 263 263 272 274 269 267 265 269 274 278 284 288 292 301 313 368 390 389 385
292 296 282 284 319 290 275 266 280 277 274 257 275 271 261 253 243 264 267 261 255 258 257 258 256 249 261 268 274 264 261 259 260 261 265 271 274 278 283 285 287 288 292 299 311 339 354 374 392 394 394 394 395 392
305 307 305 302 299 310 304 309 318 341 333 299 290 301 301 303 296 295 298 297 278 276 280 268 265 272 276 274 275 277 277 277 284 288 291 292 296 302 312 320 336 353 405 383 369 341 406 403 397 395 389 386 378 378
290 309 302 301 302 310 322 326 330 339 350 354 347 333 337 345 347 361 355 342 344 266 260 260 253 306 314 317 316 311 311 313 315 318 387 381 385 414 376 414 399 406 403 399 392 387 383 380 379 375 374 370 381 360
314 320 338 342 323 343 335 359 385 386 386 391 398 396 343 394 389 392 350 341 340 343 354 383 381 376 376 367 374 373 376 383 338 335 415 410 403 396 395 388 386 384 382 381 378 373 373 370 369 385 385 386 390 383
317 327 336 340 330 370 382 388 376 360 356 361 365 368 370 371 387 401 398 397 396 396 402 408 411 412 409 410 410 412 405 401 398 397 391 387 382 381 379 376 372 367 367 371 375 378 387 387 382 378 371 364 358 353
319 328 336 376 384 371 356 346 383 403 402 400 400 400 400 399 399 398 398 399 397 393 392 393 392 391 390 386 382 380 380 384 382 379 377 374 369 366 371 376 377 378 384 386 379 372 367 364 369 373 375 374 372 370
325 356 376 349 337 391 392 384 378 371 369 376 380 382 381 379 378 379 381 383 385 392 397 396 395 390 388 383 378 375 376 369 366 366 373 376 376 380 384 378 372 368 370 380 383 383 384 396 456 460 459 459 453 448
376 354 388 381 375 377 377 380 392 382 369 372 377 387 388 392 380 371 369 378 383 376 371 377 388 389 378 367 366 370 376 375 374 376 374 368 366 375 386 407 460 467 466 464 461 460 457 455 455 458 463 468 470 470
Wind_Speed
32 29 32 33 30 28 32 34 41 38 29 35 67 82 91 90 84 31 87 86 85 37 33 71 72 69 69 64 56 51 52 49 43 39 43 41 42 40 40 42 39 37 37 37 34 35 37 38 41 39 40 40 44 46
21 24 26 29 24 29 37 38 38 46 45 43 47 93 37 83 55 45 70 69 61 69 60 73 69 66 57 48 39 45 48 50 49 43 41 43 44 41 40 44 41 40 39 35 37 29 40 41 41 44 44 48 49 48
23 25 27 25 23 36 35 19 35 36 39 25 64 39 80 74 34 45 40 52 50 47 32 34 42 44 40 36 43 45 44 46 42 40 44 41 43 45 42 46 43 43 42 37 42 42 44 44 44 45 49 53 52 52
18 21 30 33 36 27 36 22 31 18 27 51 55 81 76 65 61 49 48 41 43 46 42 40 25 36 39 39 31 48 44 45 49 45 47 46 47 48 45 47 47 46 45 45 35 39 46 47 50 51 41 54 52 55
26 24 25 31 25 19 35 20 36 41 25 88 86 81 79 73 66 60 47 43 63 56 39 52 45 38 39 45 55 54 46 49 48 45 44 46 49 50 50 35 50 49 48 47 48 51 48 51 51 53 54 55 53 61
67 46 33 33 33 33 36 40 24 54 32 87 89 85 81 72 77 73 33 55 40 33 43 42 41 38 47 48 50 48 46 42 47 46 47 48 50 54 52 50 46 48 52 51 49 50 54 55 55 55 55 58 62 64
68 69 72 61 56 48 42 53 83 87 92 90 87 79 73 78 79 85 41 65 36 49 49 45 48 51 52 51 33 43 44 45 47 45 49 52 54 55 54 52 54 54 54 56 56 52 53 55 58 58 59 62 65 67
49 69 71 70 71 81 78 84 84 86 86 76 77 72 67 79 67 74 74 69 51 52 48 40 39 44 53 44 52 49 44 48 48 50 53 44 56 56 55 55 58 57 56 57 60 60 60 60 62 65 68 72 74 75
61 61 62 64 71 71 72 69 77 65 62 69 78 64 63 76 71 86 78 72 71 37 40 43 37 55 55 55 51 50 48 46 48 50 50 55 55 55 55 59 63 61 61 60 64 64 63 65 66 68 66 64 74 75
42 50 53 51 59 61 66 49 70 75 68 81 73 65 52 86 88 51 77 74 63 53 38 35 36 53 51 52 52 49 50 48 46 51 53 55 53 54 56 61 65 64 64 67 68 67 69 71 72 74 69 73 77 80
34 35 40 47 44 47 53 44 44 56 69 68 62 81 59 71 63 68 61 54 53 49 54 55 56 49 50 51 53 53 49 46 47 50 52 50 52 56 57 62 66 67 70 69 66 66 61 64 74 77 77 79 83 86
34 34 32 34 36 42 40 40 43 47 41 45 64 66 68 58 59 53 54 54 51 50 48 52 55 49 53 54 53 54 54 54 49 53 54 49 54 59 61 65 68 70 71 72 72 72 73 75 77 80 83 85 85 77
26 27 28 28 29 30 30 34 46 53 42 57 58 62 64 45 47 47 47 49 49 54 48 55 52 50 56 59 56 59 58 57 51 52 52 53 59 63 65 68 69 71 73 74 74 76 77 78 81 83 79 87 90 92
25 25 22 22 24 27 30 34 39 39 38 46 47 53 54 46 56 51 51 47 46 51 51 52 55 56 54 56 53 55 60 59 57 56 55 60 64 66 67 68 69 70 73 74 77 78 80 83 86 87 88 93 92 90
20 21 21 20 20 25 27 28 32 33 31 36 42 42 50 46 48 53 54 48 48 51 53 51 55 57 56 56 55 57 59 61 60 62 65 65 65 65 67 71 72 74 76 79 80 83 86 88 89 90 88 89 93 90
17 17 18 19 21 20 23 25 29 32 34 36 37 41 45 45 49 49 53 56 57 52 55 55 52 54 59 60 60 58 59 61 63 67 68 68 69 70 71 72 71 76 80 82 82 84 85 85 87 91 94 76 93 100
20 20 21 21 23 24 25 27 30 32 30 33 38 41 43 45 48 50 51 55 55 54 56 60 61 61 62 63 60 62 63 65 66 67 68 70 72 73 75 77 79 79 81 84 86 86 91 91 69 93 97 98 87 105
24 25 27 27 28 28 28 29 32 34 36 38 40 43 47 49 50 51 53 53 54 53 57 60 62 61 62 62 64 66 66 66 67 70 74 76 78 79 80 83 87 89 90 90 92 94 95 97 98 100 101 105 102 109
29 30 31 30 31 33 35 36 35 36 38 40 42 43 45 47 48 50 53 57 59 60 60 61 62 63 64 66 68 69 69 72 73 76 77 77 78 82 84 85 88 91 93 94 95 97 100 102 104 106 107 108 108 108
35 35 32 33 34 36 34 37 39 42 44 45 46 48 49 50 49 50 51 55 59 60 60 63 66 68 68 68 68 70 70 73 77 80 81 83 85 87 89 90 91 94 97 98 99 100 103 104 105 105 106 108 111 112
38 41 40 40 40 37 36 41 41 42 41 45 46 47 51 55 54 54 57 57 59 58 62 66 69 71 71 72 75 77 76 75 77 78 82 84 88 90 92 94 96 96 99 101 102 101 102 104 105 109 112 113 115 118
43 43 39 47 45 44 45 45 45 46 47 48 47 46 50 53 55 56 55 57 59 60 61 63 66 68 70 71 73 74 76 78 80 81 84 86 88 91 93 95 97 99 100 102 104 105 106 108 110 113 117 120 121 124
49 49 51 53 53 48 48 47 50 51 53 55 56 57 53 54 56 56 57 59 60 61 62 64 67 69 71 72 74 76 78 80 82 84 87 89 91 92 94 97 98 100 102 105 108 111 113 115 118 120 121 121 120 125
58 54 55 58 61 53 57 58 62 62 63 55 59 62 64 64 63 60 60 60 63 65 66 68 72 74 76 77 78 79 81 82 84 86 88 90 93 95 97 100 103 106 108 110 114 116 118 119 119 121 125 127 129 90
61 52 64 63 67 61 70 52 58 60 56 55 67 72 70 65 72 74 74 74 75 73 69 72 76 78 82 83 64 87 71 73 76 79 87 91 95 100 103 103 103 102 107 111 114 118 120 122 126 129 98 82 81 82
60 57 68 65 59 72 73 70 74 76 77 73 76 79 78 73 64 82 84 82 77 80 79 79 78 71 82 86 88 87 87 88 90 93 96 102 103 106 108 110 113 115 117 121 124 115 109 92 80 79 79 79 77 76
50 50 54 58 61 60 65 67 67 62 67 78 79 81 82 84 86 87 90 92 91 90 92 91 90 91 95 95 95 96 97 99 102 104 106 107 110 113 116 117 113 103 74 85 90 103 71 71 73 74 74 75 76 74
53 48 53 57 58 58 58 59 60 58 57 57 59 61 61 62 65 63 68 70 80 74 72 74 70 98 100 101 101 100 101 102 104 107 79 83 82 68 82 64 70 66 67 68 69 70 72 73 73 74 74 75 74 75
43 45 48 48 52 50 52 49 43 39 36 36 37 39 55 44 48 50 65 67 70 71 71 66 67 71 72 77 75 76 75 71 84 85 59 60 61 64 65 67 68 68 69 70 71 73 73 74 75 75 74 73 73 71
47 49 50 51 50 51 46 42 39 40 39 40 40 42 43 45 46 45 48 50 52 53 53 52 52 52 53 54 55 54 55 57 57 58 59 61 62 63 64 66 68 70 72 73 74 75 74 73 73 73 72 71 72 73
48 50 56 56 48 45 43 42 37 35 36 37 37 37 37 39 40 41 41 42 42 43 46 47 48 49 49 50 51 54 55 55 56 58 59 61 64 66 67 68 70 71 72 72 72 73 73 74 74 74 73 72 71 70
50 62 51 47 44 36 33 33 33 31 31 33 33 33 33 35 36 37 39 40 41 42 42 43 43 44 46 47 49 50 52 55 57 60 62 64 66 68 69 69 70 72 73 75 76 76 76 78 70 68 67 66 66 66
49 46 37 36 35 34 34 32 33 31 30 30 30 31 32 33 33 34 35 36 37 38 40 41 41 41 44 46 49 51 53 56 58 60 62 64 68 71 74 75 74 70 69 67 66 64 63 62 60 58 56 54 53 52
Wind_Direction
172 185 196 206 214 213 213 209 194 182 189 197 187 188 187 194 206 213 211 220 225 223 220 231 230 235 240 243 239 240 242 242 248 242 246 235 235 237 242 241 244 246 253 255 259 262 263 269 273 276 277 279 277 280
183 197 204 214 205 217 191 190 186 178 198 186 189 177 199 186 199 209 206 212 217 225 227 238 242 241 239 236 223 228 230 232 230 232 250 235 236 240 245 245 245 249 253 258 262 270 267 270 274 278 280 277 280 283
193 203 214 217 172 184 169 165 178 177 180 178 170 179 172 176 208 211 213 199 201 205 218 231 226 223 219 204 217 229 226 230 233 236 236 240 239 240 246 247 250 251 252 261 260 262 268 271 276 278 278 280 284 286
184 185 183 182 185 174 182 155 175 165 164 173 163 159 161 160 164 170 150 158 177 168 197 214 213 214 211 206 202 241 226 229 237 235 232 237 239 241 245 249 249 254 257 259 266 268 266 273 274 276 286 283 286 286
107 145 164 171 151 135 170 168 170 167 186 154 151 143 147 157 164 160 153 213 188 189 204 207 212 206 195 216 215 220 221 238 242 247 240 239 241 243 245 254 251 254 257 260 264 267 271 270 272 275 279 284 288 288
66 86 126 144 147 163 166 160 187 157 165 139 137 147 151 161 160 167 212 189 205 218 210 209 210 213 199 210 218 222 221 227 235 235 237 242 245 244 246 248 254 257 260 261 265 269 270 274 277 278 280 282 282 283
82 87 93 88 106 119 140 139 135 137 134 139 143 149 152 153 160 158 189 181 216 179 197 212 202 199 208 213 236 227 230 242 239 241 240 245 247 248 248 250 254 255 259 263 265 268 271 274 276 280 282 284 285 288
104 98 98 101 107 118 120 126 129 134 140 152 152 166 173 152 166 172 177 192 183 182 211 218 210 210 207 223 221 227 240 236 238 241 239 246 247 250 252 254 256 258 261 265 268 268 269 272 276 278 281 283 287 290
107 112 115 118 122 125 129 133 136 149 156 155 156 178 178 173 185 183 189 195 204 212 215 227 225 204 212 218 222 227 245 250 241 244 244 246 248 251 254 256 259 261 263 265 268 270 273 275 277 279 282 286 286 287
110 116 118 125 128 129 135 141 142 146 154 154 162 171 190 171 174 203 192 190 196 186 223 229 233 210 216 226 228 246 244 248 247 245 246 248 250 253 255 258 260 262 263 265 268 273 276 279 282 282 285 286 287 290
114 114 125 129 134 138 139 143 151 153 156 161 165 169 175 176 178 177 186 184 191 192 197 203 209 219 233 229 230 240 249 251 253 248 250 251 255 257 257 257 259 262 264 266 270 274 280 283 280 281 284 288 288 290
95 100 118 125 135 141 146 151 154 158 161 165 170 173 175 184 183 190 187 187 208 209 209 208 212 227 225 231 239 242 242 244 255 248 252 253 255 257 257 257 259 262 265 268 270 273 276 279 282 284 285 286 288 293
100 107 114 128 131 138 145 153 162 166 168 171 173 177 180 191 190 191 193 198 198 204 218 212 222 229 227 232 240 242 246 248 258 256 254 254 254 257 259 261 264 266 268 270 273 275 277 280 281 282 287 287 289 291
113 110 112 129 142 150 153 165 168 173 177 177 181 185 189 194 197 199 205 210 212 211 219 222 223 228 235 239 249 250 248 252 257 258 258 255 257 259 261 264 267 269 273 277 278 280 282 283 283 285 287 290 292 293
130 135 137 139 145 159 168 174 179 180 181 188 191 195 195 203 205 206 213 216 222 224 228 238 233 236 242 245 250 253 254 254 254 260 260 260 261 265 268 269 271 274 275 276 279 280 281 283 285 287 289 292 294 295
163 163 161 162 166 168 176 180 183 189 192 195 199 203 206 209 212 217 218 221 224 233 235 240 247 251 249 250 250 256 261 254 255 257 260 264 266 268 270 271 273 273 274 276 278 280 283 286 288 288 290 293 295 296
189 191 193 193 192 192 194 197 200 204 205 207 210 213 216 221 224 227 231 232 235 242 245 246 248 252 254 256 258 261 261 255 256 259 262 264 266 267 269 270 272 277 279 281 282 284 285 287 290 290 291 294 296 295
207 207 204 204 206 209 213 214 213 216 217 217 218 221 224 228 231 235 238 238 244 249 249 253 256 259 260 262 258 259 261 263 262 260 260 263 265 267 269 271 273 275 277 279 280 282 284 287 289 290 291 292 295 295
217 220 219 218 215 216 219 222 223 225 227 228 230 231 233 236 237 239 241 242 244 247 250 253 256 255 257 258 259 261 264 264 265 266 267 269 270 270 271 272 274 275 277 280 282 284 285 286 288 290 291 293 294 295
226 224 224 228 231 230 230 231 232 233 232 234 237 239 243 244 246 248 248 247 250 252 251 252 252 254 257 259 260 262 262 263 263 264 266 267 268 270 272 275 277 278 279 280 282 284 285 287 289 290 292 294 296 297
236 236 235 237 236 244 245 238 237 239 241 238 238 242 241 247 250 253 251 253 254 251 250 251 253 256 261 264 264 263 263 263 263 264 266 268 269 271 273 275 276 279 280 282 283 285 287 289 291 293 294 294 296 296
246 244 245 244 240 244 245 244 249 248 247 244 248 253 251 247 247 249 252 255 256 257 257 257 258 259 260 261 263 264 265 267 269 270 271 272 273 274 275 277 279 281 283 285 287 288 289 290 291 292 293 293 294 295
245 242 242 244 247 248 249 251 255 257 258 256 254 252 253 255 257 257 259 259 258 258 259 260 261 262 263 264 265 267 268 269 270 271 273 274 275 277 279 280 281 283 285 286 286 288 289 290 290 290 291 292 294 295
247 249 249 244 246 255 254 257 258 256 254 259 260 259 257 260 261 262 262 262 263 264 265 266 265 266 266 267 268 269 270 272 273 275 276 277 279 280 281 281 282 282 284 285 285 286 287 288 290 292 293 294 295 297
250 257 252 251 250 257 252 264 265 261 264 265 262 253 262 268 264 260 262 262 263 266 270 270 269 269 268 269 273 270 276 278 279 281 281 280 282 281 281 283 284 285 286 286 287 287 288 289 290 291 294 296 297 298
250 251 252 255 257 253 258 260 257 256 256 263 259 258 262 267 271 264 262 266 269 269 271 273 275 276 276 273 271 272 274 277 279 281 282 282 282 282 282 282 282 283 284 285 287 289 290 293 294 294 295 295 296 298
255 258 258 258 258 260 259 260 261 265 261 259 261 259 259 258 259 260 260 260 264 266 266 269 273 272 272 273 274 274 275 277 277 278 278 280 281 281 282 282 284 286 290 289 289 289 292 292 293 294 294 295 296 297
261 263 263 265 266 267 268 270 271 273 273 271 268 264 264 264 265 265 264 264 264 268 271 272 274 270 271 271 271 273 274 275 276 278 284 285 286 287 286 289 288 289 290 290 291 291 292 292 292 293 294 295 296 296
273 278 291 289 272 285 279 290 298 291 286 282 276 271 269 267 267 267 265 266 266 267 269 271 272 273 275 276 278 279 281 281 278 279 287 287 287 289 290 290 290 291 291 292 292 292 292 292 293 294 295 295 296 296
286 292 295 298 285 302 302 300 293 285 281 280 277 274 272 271 271 273 272 273 274 275 277 279 281 281 281 282 283 283 284 285 286 286 287 287 287 288 288 289 289 290 290 291 291 292 292 292 292 293 293 293 294 294
291 297 303 306 303 301 297 291 291 291 289 286 284 284 283 282 281 280 280 280 280 280 281 281 281 282 283 283 284 285 286 286 286 287 287 288 288 288 289 290 290 290 291 291 291 290 290 291 291 292 292 293 293 293
295 304 303 300 296 298 297 295 294 293 293 291 290 286 283 282 281 281 281 281 281 282 283 283 284 285 285 286 286 286 286 287 288 289 291 291 291 292 292 292 292 292 292 292 292 292 292 291 292 292 292 291 291 290
300 301 302 302 302 301 301 300 302 299 293 290 289 288 288 288 287 286 286 286 286 286 286 287 289 289 289 289 290 291 293 292 293 293 294 294 294 295 295 295 296 296 296 296 296 295 295 294 294 294 294 294 293 292